Location: Villingen
(48.0639°N, 8.4609°E)
Time: 09:19:33
(UTC+01:00)

ISS - Pass Details

Date: 10 February 2018
Orbit: 402 x 407 km, 51.6° (Epoch: 24 February)

Event Time Altitude Azimuth Distance (km) Brightness Sun altitude
Rises 20:15:57 0° 281° (W) 2,320 1.4 -26.4°
Reaches altitude 10° 20:19:20 10° 243° (WSW) 1,456 -0.4 -27.0°
Enters shadow 20:20:17 11° 226° (SW) 1,397 -0.7 -27.1°
